TimeCDT,TemperatureF,Dew PointF,Humidity,Sea Level PressureIn,VisibilityMPH,Wind Direction,Wind SpeedMPH,Gust SpeedMPH,PrecipitationIn,Events,Conditions,WindDirDegrees,DateUTC
12:53 AM,45.0,42.1,90,30.12,10.0,Calm,Calm,-,N/A,,Clear,0,2013-06-06 05:53:00
1:53 AM,44.1,42.1,93,30.10,10.0,NNW,3.5,-,N/A,,Clear,340,2013-06-06 06:53:00
2:53 AM,39.9,39.0,97,30.09,10.0,NW,3.5,-,N/A,,Clear,310,2013-06-06 07:53:00
3:53 AM,39.9,37.9,93,30.07,10.0,Calm,Calm,-,N/A,,Clear,0,2013-06-06 08:53:00
4:53 AM,39.0,37.0,93,30.07,10.0,Calm,Calm,-,N/A,,Clear,0,2013-06-06 09:53:00
5:53 AM,39.0,37.0,93,30.07,6.0,Calm,Calm,-,N/A,,Clear,0,2013-06-06 10:53:00
6:30 AM,37.4,35.6,93,30.09,1.2,NNW,3.5,-,N/A,,Clear,340,2013-06-06 11:30:00
6:40 AM,37.4,37.4,100,30.09,3.0,WNW,3.5,-,N/A,,Clear,300,2013-06-06 11:40:00
6:53 AM,41.0,39.0,93,30.09,10.0,Calm,Calm,-,N/A,,Clear,0,2013-06-06 11:53:00
7:53 AM,48.0,44.1,86,30.08,10.0,Calm,Calm,-,N/A,,Clear,0,2013-06-06 12:53:00
8:53 AM,54.0,46.9,77,30.10,10.0,West,3.5,-,N/A,,Clear,280,2013-06-06 13:53:00
9:53 AM,59.0,46.9,64,30.09,10.0,Calm,Calm,-,N/A,,Clear,0,2013-06-06 14:53:00
10:53 AM,62.1,42.1,48,30.07,10.0,Calm,Calm,-,N/A,,Mostly Cloudy,0,2013-06-06 15:53:00
11:53 AM,66.0,46.9,50,30.07,10.0,SSW,6.9,-,N/A,,Mostly Cloudy,210,2013-06-06 16:53:00
12:53 PM,66.0,46.9,50,30.07,10.0,WNW,5.8,-,N/A,,Overcast,300,2013-06-06 17:53:00
1:53 PM,68.0,48.0,49,30.06,10.0,WNW,4.6,-,N/A,,Mostly Cloudy,300,2013-06-06 18:53:00
2:53 PM,71.1,46.9,42,30.04,10.0,Calm,Calm,-,N/A,,Mostly Cloudy,0,2013-06-06 19:53:00
3:53 PM,72.0,46.9,41,30.03,10.0,Calm,Calm,-,N/A,,Scattered Clouds,0,2013-06-06 20:53:00
4:53 PM,73.0,46.9,39,30.01,10.0,Variable,4.6,-,N/A,,Scattered Clouds,0,2013-06-06 21:53:00
5:53 PM,73.9,46.0,37,30.00,10.0,Calm,Calm,-,N/A,,Scattered Clouds,0,2013-06-06 22:53:00
6:53 PM,73.0,46.9,39,29.99,10.0,NW,5.8,-,N/A,,Clear,320,2013-06-06 23:53:00
7:53 PM,70.0,46.9,44,29.99,10.0,East,6.9,-,N/A,,Mostly Cloudy,80,2013-06-07 00:53:00
8:53 PM,64.9,50.0,58,30.00,10.0,ENE,4.6,-,N/A,,Clear,60,2013-06-07 01:53:00
9:53 PM,57.9,46.9,67,30.02,10.0,ENE,5.8,-,N/A,,Clear,60,2013-06-07 02:53:00
10:53 PM,54.0,46.9,77,30.04,10.0,East,4.6,-,N/A,,Clear,100,2013-06-07 03:53:00
11:53 PM,51.1,46.0,83,30.05,10.0,Calm,Calm,-,N/A,,Clear,0,2013-06-07 04:53:00